Theta_e
321 321 321 323 325 323 321 321 322 322 323 323 323 323 323 323 324 324 324 324 321 321 319 319 318 319 319 319 321 322 322 322 323 321 319 320 320 319 322 323 324 326 328 327 325 322 320 318 323 330 329 330 330 330 331 331 330 331 332 333 332 332 334
320 321 321 322 322 322 321 321 322 321 322 323 322 322 322 321 322 322 322 321 320 318 317 316 317 316 317 317 317 317 318 318 320 321 320 317 318 317 319 320 322 322 324 325 323 323 320 317 318 321 323 327 330 330 331 331 332 333 333 332 332 331 333
319 319 321 321 322 321 321 321 321 321 321 321 322 321 321 320 321 322 321 320 320 318 316 315 316 316 316 316 316 316 317 316 317 317 317 316 317 317 318 318 317 318 319 319 320 319 320 322 316 316 320 319 319 325 328 331 329 329 330 332 332 331 332
320 320 320 320 320 321 320 320 320 320 321 321 321 322 321 321 322 322 321 320 320 318 316 315 315 314 315 315 315 315 314 314 313 314 314 314 314 314 314 315 314 315 314 314 314 316 317 316 316 316 317 317 317 317 324 327 327 327 328 331 332 332 332
321 320 320 320 321 320 321 319 320 320 320 321 321 320 321 322 322 321 321 320 318 318 317 317 316 315 315 315 314 314 313 314 314 312 312 312 312 311 311 312 312 314 314 313 314 315 315 314 314 313 314 317 317 318 321 325 326 326 327 327 329 330 332
322 321 322 321 322 321 320 320 319 318 319 319 320 320 321 322 322 320 319 318 318 318 318 316 316 316 315 314 314 314 313 312 311 312 310 311 311 309 309 311 311 310 311 312 312 313 314 315 314 312 314 316 312 315 319 321 321 324 325 325 328 329 329
321 322 322 321 322 322 321 320 319 319 318 319 320 320 321 322 321 321 321 320 318 318 317 317 316 315 315 312 314 313 313 313 312 312 311 311 311 311 311 309 310 309 310 311 311 311 311 312 311 311 311 312 314 313 315 316 319 318 321 326 328 328 329
322 321 321 322 322 321 321 321 321 321 320 321 320 322 322 322 322 322 320 319 318 318 317 317 316 316 315 313 313 314 313 313 312 311 311 310 309 309 310 309 309 309 309 309 310 310 309 310 310 310 309 307 308 310 311 313 314 316 316 319 323 325 328
321 322 322 321 321 322 322 321 321 321 321 322 323 323 322 322 321 320 320 319 318 318 317 316 315 313 314 313 312 313 312 313 312 311 311 311 310 310 310 310 309 308 309 309 310 309 309 310 310 309 309 309 306 304 308 309 311 312 317 316 319 323 326
320 321 321 321 321 321 322 322 322 321 322 322 321 323 322 322 321 320 319 318 318 317 316 315 314 313 313 312 312 311 311 312 311 310 310 310 310 310 310 309 308 308 308 310 309 309 310 310 310 309 309 308 308 305 304 304 307 309 314 317 316 321 324
320 321 322 322 322 320 320 321 322 320 319 320 321 321 322 321 321 320 319 318 318 317 316 315 314 313 313 312 312 311 311 312 311 311 310 310 310 310 309 309 309 308 309 309 308 310 310 309 309 309 308 309 309 306 305 303 304 310 311 314 315 314 320
319 320 321 322 322 320 319 320 320 320 321 320 319 320 320 320 320 319 319 318 317 316 316 315 315 313 312 311 312 310 312 312 310 309 310 310 310 309 309 308 309 308 309 308 309 309 310 309 309 309 308 308 308 308 305 305 301 308 314 313 317 320 318
318 318 320 321 320 319 320 319 319 320 320 319 320 320 320 319 319 318 318 317 316 315 315 314 314 313 313 312 311 310 311 311 309 308 309 309 308 309 308 307 307 307 308 308 308 308 307 308 308 307 308 307 307 307 306 304 303 303 309 310 311 314 315
318 318 319 320 320 321 321 320 319 320 319 319 320 319 319 319 318 317 317 315 314 314 314 313 314 313 312 311 311 310 310 309 307 308 308 308 308 307 306 305 306 306 308 307 307 307 307 307 307 306 307 306 306 307 306 305 303 303 308 312 311 311 314
319 319 319 319 319 319 320 320 320 318 318 319 319 319 318 319 318 317 315 314 313 313 313 312 312 312 310 310 310 311 310 308 307 307 307 305 306 307 307 305 304 305 306 305 307 306 306 306 305 305 305 305 304 305 307 304 303 303 304 309 309 311 311
319 319 319 319 319 319 319 320 319 318 318 318 318 319 318 318 317 316 315 314 313 312 312 311 312 311 310 309 308 309 309 307 307 306 306 305 304 305 305 305 304 304 305 305 306 306 307 306 306 305 305 305 305 305 305 305 304 302 303 304 307 306 308
319 319 318 319 319 319 319 319 318 318 318 318 316 318 318 317 316 316 314 313 312 312 311 311 310 310 309 308 308 307 307 307 307 306 305 304 304 304 304 303 304 304 304 303 304 304 305 306 306 305 306 306 305 304 305 305 305 303 302 301 305 305 307
320 318 318 318 319 319 319 319 318 317 318 317 317 317 317 317 316 315 314 312 312 311 311 310 309 309 309 309 308 307 307 306 306 305 305 304 303 304 303 303 303 303 303 303 303 303 303 304 304 305 305 305 305 305 305 304 304 303 302 301 302 305 306
320 319 319 319 319 319 319 318 318 317 317 316 316 316 316 315 315 314 313 312 312 311 310 310 309 308 308 308 308 307 306 305 305 304 304 304 303 303 303 302 302 303 303 302 302 303 303 303 302 302 303 303 304 304 304 304 304 303 302 302 302 302 304
321 320 320 319 319 319 318 318 317 316 316 315 315 314 315 314 315 314 313 313 311 310 309 309 309 308 308 307 306 305 305 305 304 305 303 302 302 302 302 302 302 302 302 302 302 302 303 303 303 303 303 303 303 303 302 302 302 302 301 301 301 302 302
322 322 320 319 318 319 318 317 316 315 314 313 312 312 313 313 314 314 313 312 311 310 309 309 308 308 307 306 306 305 304 304 303 302 302 301 301 300 300 300 301 301 301 302 302 303 303 302 302 302 302 302 302 301 301 301 301 300 300 300 300 300 301
321 321 320 319 317 316 315 314 314 313 313 313 314 313 313 312 311 311 311 311 310 310 309 308 308 307 306 305 305 304 303 301 300 300 299 299 299 299 299 300 300 300 300 299 299 299 299 300 300 300 301 302 301 300 300 300 300 299 299 299 299 300 300
319 320 319 318 316 316 314 313 313 313 313 313 311 311 308 310 310 308 308 307 306 307 308 308 304 299 301 304 303 301 300 300 299 299 298 298 298 299 299 299 300 299 299 298 298 296 295 295 297 299 300 301 301 300 299 299 298 299 298 298 298 298 298
316 317 318 318 316 315 314 313 313 313 312 311 309 308 309 307 307 306 306 306 306 306 307 305 295 294 295 297 300 300 299 299 298 298 298 297 297 297 298 298 299 299 299 298 299 295 294 294 294 294 294 296 297 299 298 298 298 298 298 297 298 298 297
313 315 317 316 315 314 314 313 313 313 312 309 309 309 308 307 307 307 306 306 305 305 305 298 293 293 293 294 296 299 299 298 298 297 297 297 297 297 297 298 299 299 299 299 298 298 296 294 293 293 292 292 292 293 294 298 298 297 298 297 297 297 298
312 313 314 315 315 314 313 313 313 313 311 311 310 308 307 307 305 305 305 305 304 304 303 294 293 293 292 292 293 297 298 298 297 297 297 297 297 297 297 297 297 298 299 297 298 299 299 299 295 294 293 293 293 292 291 291 292 298 298 297 297 296 297
310 312 313 314 314 314 313 312 313 314 312 311 308 308 309 307 305 304 304 304 304 303 303 295 292 292 292 291 290 293 297 297 297 296 296 296 297 297 296 296 296 296 297 298 298 298 298 298 298 298 298 298 298 297 293 292 291 291 294 297 297 295 298
310 311 312 312 312 312 313 313 313 312 311 309 306 307 307 306 305 305 304 304 303 303 303 292 291 291 291 291 289 292 298 297 297 297 297 297 296 296 296 296 296 296 296 297 297 296 296 296 296 295 295 296 297 297 298 299 299 299 298 298 297 297 298
310 310 311 311 310 311 312 313 312 312 310 309 307 305 305 304 303 304 304 303 302 301 299 291 291 291 290 290 290 297 297 297 296 296 296 296 296 296 296 296 296 296 296 296 294 291 292 294 294 293 293 294 294 295 296 296 295 295 297 298 298 298 299
308 309 310 310 310 310 311 312 312 311 309 307 306 304 303 303 302 301 301 302 301 299 298 293 290 290 290 289 292 297 296 295 295 295 295 295 295 295 296 296 295 295 295 295 293 290 290 291 293 292 292 292 292 293 294 296 294 292 292 292 292 292 291
307 308 309 309 309 310 311 312 312 309 308 305 303 302 301 301 301 300 300 300 300 298 298 294 290 290 290 289 292 295 295 294 294 294 294 295 295 295 295 294 294 294 294 295 291 289 289 291 292 291 291 290 290 290 291 293 295 295 293 292 291 291 291
307 308 308 309 309 310 310 310 309 306 305 304 302 300 298 297 297 299 299 298 298 298 296 294 290 290 290 289 293 296 295 294 293 293 294 293 295 295 295 295 293 293 293 293 289 289 288 290 291 290 290 289 288 288 290 292 291 292 293 293 294 294 294
307 308 308 308 309 309 309 305 304 303 301 299 297 297 298 297 296 295 297 298 298 297 296 295 295 289 290 290 290 294 295 293 292 292 293 293 293 294 294 294 294 290 289 288 288 288 288 288 290 290 290 289 288 287 291 291 291 291 291 291 292 292 293
307 308 309 309 309 306 304 303 301 299 297 296 295 294 295 296 295 295 295 296 297 297 297 295 295 289 290 290 289 290 294 294 294 293 293 292 292 292 293 293 294 291 289 289 288 288 288 288 288 290 289 289 289 290 290 290 290 289 290 290 290 290 290
307 308 308 307 303 301 301 301 299 298 297 297 297 296 295 295 294 292 293 295 296 297 295 293 295 291 289 289 289 289 293 294 293 292 292 292 292 292 292 292 292 291 289 288 288 288 288 288 288 289 288 287 287 287 288 289 289 289 289 289 289 289 289
306 306 305 303 300 298 298 298 297 297 297 297 296 295 295 295 295 293 293 294 295 294 294 294 291 293 290 289 288 288 288 290 289 292 292 291 291 291 292 292 291 290 288 288 287 287 287 287 288 288 287 287 287 287 288 288 288 287 287 287 287 287 288
305 304 302 299 298 297 296 296 295 295 296 296 295 294 294 295 294 293 293 293 294 294 293 292 291 289 290 288 288 288 288 287 288 291 291 291 291 291 291 291 290 288 287 287 287 287 287 287 288 287 287 287 287 287 288 288 288 287 287 287 286 287 287
Wind_Speed
5 4 5 4 3 4 5 5 5 5 4 5 6 6 6 5 5 5 6 6 7 6 6 7 7 6 6 6 6 6 6 5 6 4 4 4 2 3 4 4 4 3 3 2 2 3 3 2 1 1 2 1 3 2 2 1 1 2 3 3 4 4 5
2 1 3 4 5 4 6 4 4 5 5 4 5 6 6 7 6 6 7 7 7 7 7 7 7 7 7 7 6 6 6 6 5 4 4 4 4 4 3 3 3 4 2 3 4 3 2 2 3 3 4 3 2 1 2 3 4 3 3 4 4 5 4
3 2 3 5 5 5 6 5 5 5 5 5 4 5 7 7 7 6 7 7 7 7 6 7 8 8 7 7 7 7 7 7 6 6 6 4 4 5 4 3 3 3 3 2 3 4 3 2 4 3 3 5 6 1 4 3 4 4 5 4 5 5 5
5 4 4 5 4 5 6 5 5 5 4 5 5 5 6 7 6 6 6 6 6 6 7 7 7 7 7 7 7 8 8 8 6 7 7 6 5 6 6 5 4 4 3 3 3 3 4 4 5 5 5 4 6 7 4 3 4 5 4 4 4 4 4
8 6 7 7 7 7 7 6 4 4 5 5 5 5 6 6 6 6 6 6 6 6 7 6 6 7 6 6 6 6 7 7 7 7 7 7 6 5 6 5 4 3 3 3 3 3 4 4 4 6 6 6 7 6 5 6 7 6 5 5 4 3 4
7 8 7 7 7 6 6 6 6 6 5 6 6 6 6 8 7 7 7 6 6 6 6 7 7 7 6 6 6 7 7 7 6 6 7 7 7 6 5 4 4 3 3 3 3 3 3 4 4 6 6 6 8 8 7 7 6 5 6 6 5 4 3
7 7 6 7 6 6 6 7 8 7 7 7 7 7 7 7 6 7 7 7 7 7 7 7 6 6 6 6 6 6 6 5 6 7 7 6 6 6 4 4 4 4 3 3 2 2 3 4 4 5 7 7 7 9 7 7 7 8 6 4 4 5 5
7 6 6 6 6 6 6 6 6 5 6 6 7 6 7 7 6 6 7 7 7 7 7 6 5 6 6 6 6 6 5 5 5 5 5 5 5 5 5 4 3 4 3 3 3 3 2 2 3 4 5 7 7 7 7 7 8 8 8 7 7 7 6
5 5 5 4 4 5 6 7 7 7 6 5 4 5 6 7 7 7 7 7 7 7 6 6 6 5 5 5 5 5 5 3 5 5 4 5 5 5 4 3 3 4 3 3 2 3 3 3 3 3 3 4 7 9 7 8 7 7 6 7 6 6 5
7 7 6 7 7 6 5 6 6 6 5 4 5 4 6 6 7 8 7 7 7 7 7 6 6 6 5 5 5 5 4 3 3 4 3 3 4 3 3 3 3 2 2 1 1 2 2 1 2 2 3 4 4 7 8 9 8 7 5 5 6 3 4
8 8 7 7 6 6 6 5 4 4 6 5 5 5 6 7 7 8 7 7 7 6 6 6 5 5 5 4 5 4 3 3 3 2 2 3 3 2 2 2 2 2 2 2 2 1 1 1 2 2 2 3 4 6 7 9 10 6 8 7 8 8 5
7 7 6 6 5 6 7 7 7 6 5 5 5 6 6 7 7 8 8 8 7 7 6 6 5 5 4 4 4 4 3 3 2 3 2 1 2 2 2 2 1 2 2 2 2 1 1 2 2 2 3 3 4 5 7 7 11 5 3 6 6 6 9
7 7 7 7 6 8 8 7 7 6 6 6 6 7 7 8 9 9 8 8 7 7 6 5 5 5 4 4 3 3 3 3 3 2 2 2 1 1 1 2 2 2 2 3 2 2 3 3 3 4 4 4 4 5 6 8 10 13 7 9 9 9 10
8 7 8 7 8 7 7 7 7 6 6 6 7 8 8 9 10 10 10 9 9 8 7 6 5 4 4 4 4 4 4 3 2 2 1 1 1 1 2 2 3 3 2 3 3 4 4 3 4 4 5 5 5 5 6 8 10 12 8 6 8 8 8
8 8 8 8 9 8 7 7 6 7 8 8 8 9 10 9 9 10 10 10 9 9 8 7 6 5 5 5 5 3 3 3 2 2 1 1 2 2 2 4 5 4 4 4 4 5 4 4 4 5 4 5 6 6 6 8 10 10 12 6 7 7 9
9 10 10 9 9 9 8 7 7 8 8 8 8 9 10 10 11 11 10 10 10 9 9 8 6 7 6 7 6 5 4 3 2 2 1 0 2 2 3 4 5 5 4 5 5 5 5 5 5 5 5 5 6 7 7 8 9 11 12 10 8 9 7
7 7 8 8 9 9 6 6 7 8 9 8 9 8 9 11 11 11 11 10 10 9 9 8 8 7 7 6 6 6 5 4 3 3 1 1 1 2 3 4 4 5 5 6 6 5 5 5 5 5 6 6 6 6 7 8 9 10 11 13 9 8 8
9 9 9 8 9 9 8 7 6 8 8 8 9 8 8 9 10 11 10 11 10 10 10 10 9 8 7 6 5 5 4 4 3 2 1 1 2 3 4 5 5 5 5 6 6 6 5 7 7 6 7 6 6 6 6 7 9 9 11 13 12 10 9
9 9 9 9 10 8 7 7 8 8 8 9 9 10 11 10 11 12 11 11 10 10 10 9 9 8 8 7 6 5 4 3 2 0 1 2 3 4 5 6 6 6 6 7 7 7 7 8 7 8 9 8 8 7 8 9 9 10 11 13 13 12 10
8 9 9 9 8 8 9 9 8 7 7 6 6 6 8 11 9 11 10 9 10 10 10 9 8 8 8 7 6 6 4 3 1 0 2 3 4 4 5 5 6 6 7 7 8 8 8 8 7 9 9 8 9 9 9 10 10 11 11 12 12 12 11
8 8 8 8 8 9 7 5 4 4 5 6 8 11 11 10 7 8 8 9 9 9 9 8 8 8 7 7 6 5 4 3 1 1 1 2 3 4 5 6 6 7 7 8 8 8 8 8 8 9 8 8 8 9 10 10 11 11 12 12 12 11 10
8 8 7 6 7 7 4 5 6 7 9 10 8 4 4 5 7 7 8 8 8 7 8 8 7 7 7 7 5 5 4 3 2 1 1 2 3 4 5 6 6 7 8 9 10 11 11 10 9 10 9 9 10 11 11 10 10 10 11 11 12 11 11
8 8 7 6 7 5 5 8 9 10 10 8 9 12 14 12 11 12 9 9 9 7 7 6 7 10 8 6 5 4 4 3 2 1 1 2 4 5 6 7 7 10 11 12 13 13 12 13 13 12 11 10 10 11 12 12 12 11 11 11 11 11 12
6 7 8 6 6 8 8 8 9 9 7 8 9 10 10 12 11 9 9 9 9 7 6 6 13 11 10 8 6 5 3 2 1 1 2 3 5 6 7 8 8 9 10 11 12 13 14 15 14 14 15 15 14 13 12 13 13 13 13 13 12 12 12
6 7 7 7 8 9 9 9 10 9 7 9 9 9 9 9 9 9 7 8 8 7 6 10 13 11 10 9 6 4 3 1 1 2 3 4 5 6 8 8 7 7 8 9 10 11 11 13 15 15 16 16 16 17 16 15 13 12 13 13 13 14 14
7 6 7 8 8 8 10 10 10 9 10 11 9 10 11 10 9 8 9 10 9 7 7 11 12 12 11 9 6 2 2 1 1 2 4 5 6 7 7 8 8 7 7 10 10 10 10 10 10 11 13 15 16 17 17 18 18 16 14 15 15 15 14
8 7 6 7 9 9 10 11 11 9 8 8 9 9 10 10 9 10 9 9 8 8 8 10 11 10 10 9 8 3 1 0 1 3 4 5 5 6 7 8 8 8 8 9 9 10 10 10 10 11 11 12 13 14 16 19 20 20 18 17 18 18 15
7 7 6 7 9 11 11 10 10 8 8 10 10 11 12 11 10 10 10 9 9 8 6 10 10 10 9 8 7 4 1 1 1 2 3 4 5 6 8 8 9 9 9 9 8 9 10 11 11 12 13 14 14 14 15 15 14 13 13 15 17 18 18
8 7 7 7 10 11 12 11 10 9 8 8 5 5 6 7 9 9 9 10 10 8 6 10 10 10 8 7 7 2 1 1 1 3 4 4 6 6 7 8 9 9 10 9 10 9 9 11 13 14 15 15 15 15 14 14 14 12 14 14 15 16 15
10 9 8 8 10 11 12 11 8 7 8 9 9 10 9 8 8 9 10 9 10 8 8 8 10 9 8 7 4 0 1 2 3 4 5 6 6 7 7 8 9 9 10 10 10 8 8 9 13 14 15 15 14 14 14 13 13 13 14 17 19 20 21
10 10 9 9 10 11 11 9 8 7 9 9 8 6 5 6 6 6 7 8 9 9 8 7 8 7 6 5 2 1 3 4 5 6 7 7 7 8 9 12 13 11 11 12 11 7 6 8 14 15 15 16 17 16 14 11 11 12 13 14 17 19 20
10 10 11 10 10 11 11 10 6 5 5 4 5 6 8 9 9 6 5 6 8 9 7 6 6 6 5 5 3 2 4 5 6 7 8 8 8 8 8 8 10 11 12 13 13 13 12 12 15 15 15 16 16 16 14 14 13 13 14 15 14 13 13
10 10 11 11 11 11 7 6 7 7 7 7 7 6 7 7 8 6 5 6 5 6 6 5 6 5 4 3 4 4 4 6 8 9 9 9 9 9 9 9 10 10 9 10 11 12 12 12 14 16 15 16 17 17 13 14 14 13 15 14 14 14 16
11 11 10 11 9 5 6 7 8 9 9 8 10 9 8 7 8 7 6 5 5 3 3 4 4 4 3 4 3 3 5 6 8 9 9 10 10 11 11 12 12 12 10 10 10 12 13 14 14 15 15 15 16 16 15 16 17 18 18 18 17 17 15
11 10 10 5 5 5 5 7 9 10 9 10 10 9 8 7 6 6 4 5 4 4 2 2 1 4 4 5 5 4 5 7 7 9 10 10 12 13 13 12 12 12 11 11 12 13 15 16 18 16 17 20 20 19 18 17 16 15 15 15 15 15 15
12 8 6 7 7 7 7 8 8 10 11 9 10 9 7 7 7 6 5 3 2 2 2 2 3 3 3 4 6 7 8 8 8 8 9 12 14 14 12 13 13 12 11 13 17 19 20 21 19 18 21 20 20 20 19 17 17 16 15 14 14 14 14
10 6 8 8 8 9 8 9 10 9 9 9 8 9 7 6 5 5 5 3 2 1 1 1 2 4 4 6 7 9 9 9 9 8 10 12 13 12 13 13 13 16 19 21 22 21 20 20 18 21 21 21 21 21 17 16 15 15 14 14 15 15 15
Wind_Direction
195 170 159 154 134 140 137 131 124 113 105 107 111 107 107 105 100 95 95 93 88 83 82 79 78 73 71 64 60 63 56 46 43 59 73 50 50 57 27 38 35 15 0 337 9 299 284 286 280 146 158 130 321 322 296 38 4 321 287 263 251 236 232
211 109 135 143 150 152 144 139 136 125 117 108 106 109 111 113 110 110 106 102 98 94 90 89 85 81 75 70 65 62 61 59 52 49 62 56 47 38 15 32 15 19 9 47 26 13 326 287 261 303 307 327 304 154 75 338 318 307 294 276 274 276 255
183 151 156 147 155 165 156 156 147 144 139 131 121 118 117 116 115 114 109 106 105 98 91 94 97 92 87 82 77 75 75 74 62 55 55 58 59 52 42 23 11 354 335 327 6 357 305 279 300 303 323 333 314 325 332 313 326 320 296 273 259 259 261
173 170 165 154 157 169 169 168 166 153 151 144 138 136 131 128 122 116 110 106 102 103 103 103 97 96 96 95 92 86 81 81 78 74 67 55 55 53 46 42 39 34 20 359 350 341 328 301 295 278 286 279 297 308 294 298 301 294 274 254 254 247 248
173 179 184 178 175 175 174 171 170 159 157 150 154 148 150 145 134 126 121 118 111 108 104 105 106 105 102 99 95 91 88 85 84 81 74 67 59 63 54 47 53 44 38 26 5 327 321 311 307 296 288 296 289 279 293 303 290 276 270 280 284 264 251
182 187 188 187 178 180 173 169 171 180 165 167 169 164 160 157 144 139 140 131 123 115 116 112 111 109 106 101 98 95 90 85 82 83 80 74 66 57 54 54 48 52 56 38 17 346 321 308 295 293 290 298 289 293 290 291 289 279 281 276 267 272 272
188 190 194 191 184 187 175 175 181 184 181 182 171 174 165 163 158 149 142 132 126 126 123 120 117 114 113 108 109 104 100 96 95 92 90 86 79 72 59 60 51 52 43 36 23 359 350 321 301 303 304 293 285 286 290 283 279 286 272 261 280 289 288
192 190 197 195 183 186 183 180 186 183 188 184 178 168 158 163 157 149 142 136 134 131 130 128 122 117 114 111 109 112 109 107 105 102 97 91 83 78 69 59 65 55 39 26 13 9 0 358 324 314 309 304 298 290 289 284 282 268 280 281 282 276 276
209 197 194 185 193 195 185 188 184 185 193 181 171 160 165 161 155 152 147 140 138 136 137 134 131 119 115 110 109 112 114 125 116 112 108 105 96 96 92 83 67 59 44 33 11 21 358 345 327 307 298 286 293 297 301 295 289 284 292 289 288 278 277
209 210 204 195 194 193 195 195 187 188 179 176 168 173 162 161 155 155 150 144 144 141 142 143 132 123 118 108 106 108 104 109 100 95 87 78 86 86 86 85 56 62 56 33 32 15 8 334 321 302 287 283 284 278 285 287 282 290 287 303 302 305 316
205 214 215 204 191 186 196 197 189 176 189 183 174 168 164 158 155 156 152 151 149 149 149 147 138 130 126 113 115 113 106 114 111 103 89 69 70 64 62 58 30 29 51 354 21 346 334 338 292 289 270 271 268 271 280 282 284 281 283 283 275 278 300
205 213 218 214 194 197 197 197 194 193 173 170 170 164 166 163 162 161 157 155 155 152 152 148 146 139 131 126 128 125 138 148 126 122 101 73 60 25 35 6 358 347 357 340 326 325 300 286 306 281 270 260 258 262 271 276 285 270 279 292 292 307 308
213 214 215 212 210 207 203 197 194 188 185 176 177 170 171 169 165 162 163 158 157 154 154 150 153 141 140 133 138 133 134 148 129 122 126 116 94 43 4 343 342 328 332 306 299 313 304 293 299 296 286 278 264 259 258 262 262 272 276 283 290 292 295
219 218 219 217 222 219 208 197 197 192 173 182 174 173 174 172 169 167 164 164 162 161 158 156 155 151 146 140 135 129 138 145 132 106 81 101 98 23 3 341 329 325 313 290 292 292 287 290 283 283 284 282 278 272 268 266 268 276 280 267 276 284 295
216 222 224 219 218 220 211 202 187 182 190 188 181 178 178 169 170 168 167 167 165 163 162 158 158 157 150 143 137 138 144 148 138 113 78 16 20 3 345 334 330 331 322 303 292 286 289 287 280 276 274 276 280 282 277 279 276 280 285 283 279 284 287
214 210 213 222 227 225 214 198 185 188 193 185 187 184 177 171 170 170 168 167 164 161 161 156 159 159 152 153 150 150 154 154 151 150 154 35 331 344 317 321 320 323 317 307 301 291 287 276 278 277 276 273 276 279 278 274 280 282 288 290 294 289 284
228 225 223 225 228 228 225 213 197 199 195 183 185 188 178 172 168 170 169 167 165 160 158 154 156 156 153 153 156 154 155 154 154 162 169 222 281 278 301 303 308 310 310 306 303 301 291 287 282 281 278 272 267 268 273 273 269 277 285 288 288 291 296
234 230 230 234 232 229 223 216 203 208 198 188 187 177 179 176 172 173 171 170 166 163 159 156 153 151 149 152 148 146 150 149 156 168 206 280 276 295 300 298 300 303 298 295 296 292 299 296 291 286 281 277 269 266 270 272 275 276 280 283 288 288 291
239 236 231 231 233 233 224 218 211 207 197 199 184 179 179 181 181 178 174 171 166 161 157 156 156 153 150 145 141 142 147 154 156 202 301 306 313 311 306 305 303 298 295 289 289 290 289 289 290 285 281 281 282 280 273 271 268 269 271 278 284 289 286
242 239 234 234 232 228 225 219 208 200 179 180 144 177 200 187 182 178 169 163 162 157 155 155 152 151 150 148 148 149 154 156 154 156 315 315 314 312 305 303 299 294 289 287 285 284 284 281 278 278 278 278 276 277 276 273 270 269 269 275 278 279 284
260 247 240 241 239 236 226 201 179 153 146 169 183 195 184 182 173 172 164 164 159 153 152 154 154 154 153 151 152 154 151 151 166 220 303 306 311 307 304 298 294 292 287 284 282 282 280 276 275 276 273 273 274 274 273 273 273 271 271 270 271 277 276
273 270 255 231 231 234 176 150 150 161 169 190 200 147 106 140 163 173 166 157 142 149 162 160 160 159 154 153 155 153 148 148 156 171 236 276 286 290 291 288 283 281 283 280 282 275 274 278 279 276 272 271 272 272 271 271 268 267 267 268 270 269 272
273 268 261 244 238 225 175 173 186 189 190 181 161 168 179 170 170 170 163 159 162 162 160 166 139 138 145 153 152 140 140 146 154 185 275 293 290 283 282 280 273 263 258 260 259 259 257 255 254 260 270 272 268 267 266 266 266 268 268 267 265 269 268
279 268 259 240 215 217 209 202 210 207 194 174 177 172 182 176 176 166 161 158 158 158 150 143 142 142 129 123 137 139 145 149 161 247 280 293 293 292 285 284 285 276 263 254 250 241 243 248 250 251 254 258 262 265 267 264 264 264 263 266 268 267 265
279 266 251 234 218 214 211 212 217 210 189 186 191 178 178 182 170 161 149 152 152 151 148 139 148 144 142 145 146 142 147 159 216 281 292 293 293 292 293 291 287 282 274 274 283 281 263 244 239 244 247 250 251 249 248 255 262 261 259 262 263 262 265
281 267 248 236 222 213 212 215 218 206 197 194 181 180 183 171 163 155 153 153 152 149 141 151 151 151 150 142 134 164 148 132 287 298 299 293 295 298 299 295 290 284 282 273 268 269 272 274 260 245 241 242 245 244 247 245 242 251 263 264 265 264 261
277 273 260 244 242 229 215 215 214 208 197 181 180 185 178 164 156 157 154 151 149 149 150 159 151 140 131 135 145 180 120 184 291 288 292 298 297 297 293 291 290 286 285 283 281 279 279 279 283 282 275 271 273 259 236 228 234 240 244 255 259 261 261
279 278 267 251 249 237 226 217 212 204 193 184 182 179 174 168 160 158 157 150 146 145 132 133 133 134 134 136 146 200 129 191 260 283 289 299 297 293 289 284 282 282 283 282 279 289 290 289 289 286 282 278 276 272 271 268 255 244 240 244 251 257 262
284 276 266 260 255 241 231 218 210 200 191 183 172 154 155 149 149 148 145 142 142 133 122 140 142 137 141 141 172 196 135 236 281 305 311 313 305 296 289 285 284 283 281 282 280 274 273 286 289 287 283 280 278 274 271 266 264 268 266 264 260 258 258
285 284 272 264 260 246 234 219 203 187 184 186 180 179 166 154 144 137 136 141 140 131 134 147 141 143 142 153 196 79 266 298 321 321 314 310 302 292 282 278 281 282 279 275 280 284 275 265 286 285 284 282 280 279 276 274 266 255 245 248 252 259 267
277 278 274 266 262 251 238 223 202 181 186 174 168 147 127 113 96 100 116 131 137 136 134 143 150 148 156 166 254 321 322 321 323 317 314 306 299 293 283 267 266 279 281 279 279 275 264 269 284 285 284 284 282 279 276 276 273 270 258 240 239 245 251
270 271 270 266 259 249 238 222 186 155 150 118 104 111 120 116 109 98 88 93 110 122 132 149 168 161 184 183 219 301 315 324 316 315 313 307 305 299 293 282 269 270 278 281 285 281 276 276 283 283 283 283 280 278 277 279 277 277 275 274 269 258 249
263 264 264 263 253 244 212 151 140 130 110 109 117 122 123 113 113 111 116 122 125 134 141 150 164 185 204 217 235 302 318 317 317 316 311 310 308 303 298 295 286 267 259 264 269 270 271 266 277 283 282 278 277 276 278 278 277 278 279 278 276 272 272
261 258 256 256 243 182 157 150 133 124 122 118 116 108 106 103 108 116 122 117 125 132 137 153 156 176 223 255 259 258 312 313 316 314 311 306 305 304 304 302 301 298 292 283 280 278 275 273 273 278 277 274 272 280 289 281 279 277 276 274 273 271 269
262 259 256 214 149 142 129 127 135 132 133 134 125 121 123 117 112 114 122 130 141 150 125 141 188 170 217 265 279 279 298 313 316 311 305 302 304 304 302 299 295 298 298 289 283 278 275 274 273 275 273 271 274 277 277 276 277 276 273 272 270 268 266
264 246 206 162 146 130 132 125 129 138 135 121 117 117 117 128 137 134 126 133 131 128 168 214 193 259 271 283 285 279 268 278 294 285 295 301 304 300 297 294 292 293 300 298 291 284 279 275 273 274 273 270 268 266 266 269 269 268 265 264 262 262 261
238 182 152 141 130 133 131 134 137 136 127 120 118 122 129 127 114 117 127 128 146 172 184 238 217 217 279 287 280 273 274 272 270 283 291 296 295 295 293 291 298 307 296 285 278 275 275 273 274 274 271 268 266 265 267 266 263 261 259 258 257 255 253